[Date Prev][Date Next][Thread Prev][Thread Next] - [Date Index][Thread Index][Author Index]

2 Line ISS Keps 8-18



ISS
1 25544U 98067A   04231.46651256  .00018977  00000-0  15244-3 0  4700
2 25544  51.6330   7.8000 0005348 125.3938 306.9782 15.71006145328105
----
Via the sarex mailing list at AMSAT.ORG courtesy of AMSAT-NA.
To unsubscribe, send "unsubscribe sarex" to Majordomo@amsat.org



AMSAT Top AMSAT Home